SM6PGP-2 Weather Reports


Display with metric or nautical units.
time (UTC)temp
F
wind
direction
speed
MPH
gust
MPH
rain 1hr
in
rain 24hr
in
rain mn
in
humidity
%
barometer
mb
20260905093941 60 265 12.0 19.0 0.00 0.00 0.00 65 1000.6
20260905093436 61 243 20.0 32.0 0.00 0.00 0.00 64 1000.6
20260905092931 62 270 15.0 26.0 0.00 0.00 0.00 68 1000.4
20260905092426 61 261 23.0 23.0 0.00 0.00 0.00 71 1000.4
20260905091921 59 252 11.0 16.0 0.00 0.00 0.00 71 1000.4
20260905091415 58 306 15.0 22.0 0.00 0.00 0.00 72 1000.3
20260905090910 58 270 6.0 16.0 0.00 0.00 0.00 74 1000.3
20260905090405 57 229 9.0 15.0 0.00 0.00 0.00 71 1000.3
20260905085900 58 261 10.0 19.0 0.00 0.00 0.00 69 1000.3
20260905085355 58 319 1.0 16.0 0.00 0.00 0.00 68 1000.4
20260905084849 59 315 9.0 23.0 0.00 0.00 0.00 65 1000.2
20260905084344 60 261 14.0 26.0 0.00 0.00 0.00 65 1000.2
20260905083839 60 252 11.0 31.0 0.00 0.00 0.00 65 999.9
20260905083334 60 306 15.0 28.0 0.00 0.00 0.00 67 1000.0
20260905082829 59 256 6.0 26.0 0.00 0.00 0.00 66 999.9
20260905082324 60 234 16.0 26.0 0.00 0.00 0.00 66 999.8
20260905081818 60 256 14.0 29.0 0.00 0.00 0.30 65 999.9
20260905081313 60 229 17.0 20.0 0.00 0.00 0.30 66 999.9
20260905080808 61 270 11.0 29.0 0.00 0.00 0.30 65 999.9
20260905080303 60 270 13.0 20.0 0.00 0.00 0.30 67 999.8
20260905075757 60 261 10.0 24.0 0.00 0.00 0.30 67 999.7
20260905074747 59 256 24.0 25.0 0.00 0.00 0.30 71 999.5
20260905074242 59 315 20.0 26.0 0.00 0.00 0.30 70 999.6
20260905073737 59 274 17.0 30.0 0.00 0.00 0.30 71 999.5
20260905073231 58 265 20.0 30.0 0.00 0.00 0.30 72 999.4
20260905072726 58 247 29.0 29.0 0.00 0.00 0.30 73 999.3
20260905072221 58 281 14.0 27.0 0.00 0.00 0.30 72 999.3
20260905071716 58 270 18.0 29.0 0.00 0.00 0.30 72 999.2
20260905071211 58 265 28.0 28.0 0.00 0.00 0.30 73 999.2
20260905070705 58 315 8.0 20.0 0.00 0.00 0.30 73 999.3
20260905070200 58 279 6.0 19.0 0.00 0.00 0.30 73 999.2
20260905065655 58 281 7.0 16.0 0.00 0.00 0.30 74 999.3
20260905065150 58 279 23.0 23.0 0.00 0.00 0.30 74 999.2
20260905064645 57 297 11.0 16.0 0.00 0.00 0.30 74 999.0
20260905064140 57 252 16.0 24.0 0.00 0.00 0.30 75 999.0
20260905063634 58 252 21.0 22.0 0.00 0.00 0.30 75 998.9
20260905063129 58 252 14.0 16.0 0.00 0.00 0.30 77 998.8
20260905062624 57 247 21.0 21.0 0.00 0.00 0.30 78 998.7
20260905062119 56 270 9.0 18.0 0.00 0.00 0.30 76 998.4
20260905061614 57 315 12.0 18.0 0.00 0.00 0.30 76 998.7
20260905061108 57 229 7.0 16.0 0.00 0.00 0.30 77 998.6
20260905060603 57 279 7.0 20.0 0.00 0.00 0.30 76 998.6
20260905060058 57 238 13.0 22.0 0.00 0.00 0.30 76 998.4
20260905055553 57 279 15.0 22.0 0.00 0.00 0.30 77 998.4
20260905055048 57 261 4.0 15.0 0.00 0.00 0.30 78 998.4
20260905054542 56 252 2.0 15.0 0.00 0.00 0.30 78 998.1
20260905054037 56 258 12.0 16.0 0.00 0.00 0.30 79 998.2
20260905053532 56 265 20.0 27.0 0.00 0.00 0.30 79 998.1
20260905053027 56 252 10.0 14.0 0.00 0.00 0.30 81 998.1
20260905052522 56 265 6.0 21.0 0.00 0.00 0.30 81 998.1
20260905052016 56 252 4.0 19.0 0.00 0.00 0.30 82 997.9
20260905051511 56 5 3.0 26.0 0.00 0.00 0.30 82 998.0
20260905051006 56 274 15.0 21.0 0.00 0.00 0.30 82 997.8
20260905050501 56 292 12.0 20.0 0.00 0.00 0.30 82 997.8
20260905045956 56 270 13.0 26.0 0.00 0.00 0.30 82 997.8
20260905045450 56 247 23.0 23.0 0.00 0.00 0.30 82 997.7
20260905044945 56 252 11.0 23.0 0.00 0.00 0.30 83 997.8
20260905044440 56 256 7.0 15.0 0.00 0.00 0.30 83 997.7
20260905043935 56 225 8.0 23.0 0.00 0.00 0.30 83 997.7
20260905043430 56 270 10.0 23.0 0.00 0.00 0.30 84 997.5
20260905042924 56 234 8.0 16.0 0.00 0.00 0.30 84 997.5
20260905042419 56 270 14.0 19.0 0.00 0.00 0.30 84 997.6
20260905041914 56 238 11.0 21.0 0.00 0.00 0.30 84 997.5
20260905041409 56 256 21.0 22.0 0.00 0.00 0.30 84 997.6
20260905040904 56 234 3.0 22.0 0.00 0.00 0.30 84 997.4
20260905040358 56 337 13.0 22.0 0.00 0.00 0.30 85 997.3
20260905035853 56 270 14.0 18.0 0.00 0.00 0.30 85 997.5
20260905035348 56 243 8.0 18.0 0.00 0.00 0.30 85 997.4
20260905034843 56 274 13.0 22.0 0.00 0.00 0.30 86 997.2
20260905034338 56 315 19.0 23.0 0.00 0.00 0.30 86 997.2
20260905033832 56 274 11.0 21.0 0.00 0.00 0.30 86 997.3
20260905033327 56 274 8.0 21.0 0.00 0.00 0.30 87 997.5
20260905032823 56 270 5.0 14.0 0.00 0.00 0.30 87 997.3
20260905032317 56 274 9.0 11.0 0.00 0.00 0.30 88 997.2
20260905031812 56 202 5.0 23.0 0.00 0.00 0.30 88 997.1
20260905031306 55 261 10.0 16.0 0.00 0.00 0.30 89 997.0
20260905030801 55 310 6.0 16.0 0.00 0.00 0.30 89 997.1
20260905030257 55 261 3.0 19.0 0.00 0.00 0.30 89 997.0
20260905025246 55 243 8.0 16.0 0.00 0.00 0.30 89 996.8
20260905024740 55 67 5.0 13.0 0.00 0.00 0.30 90 996.9
20260905024235 55 270 15.0 16.0 0.00 0.00 0.30 90 996.8
20260905023730 55 270 7.0 16.0 0.00 0.00 0.30 90 996.7
20260905023225 55 252 14.0 16.0 0.00 0.00 0.30 90 996.7
20260905022720 55 243 4.0 18.0 0.00 0.00 0.30 90 996.5
20260905022215 55 252 4.0 19.0 0.00 0.00 0.30 90 996.5
20260905021709 55 283 19.0 20.0 0.00 0.00 0.30 91 996.5
20260905021205 55 256 17.0 30.0 0.00 0.00 0.30 91 996.3
20260905020659 55 256 8.0 22.0 0.00 0.00 0.30 92 996.3
20260905020154 55 261 10.0 17.0 0.00 0.00 0.30 92 996.2
20260905015649 55 275 5.0 15.0 0.00 0.00 0.30 92 996.2
20260905015143 55 261 14.0 21.0 0.00 0.00 0.30 93 996.4
20260905014639 55 333 4.0 22.0 0.00 0.00 0.30 93 996.1
20260905014133 55 283 13.0 18.0 0.00 0.00 0.30 93 996.1
20260905013628 54 283 11.0 21.0 0.00 0.00 0.30 94 995.9
20260905013123 54 247 14.0 17.0 0.00 0.00 0.30 94 996.0
20260905012617 54 265 5.0 16.0 0.00 0.00 0.30 94 996.1
20260905012113 54 247 13.0 21.0 0.00 0.00 0.30 94 995.9
20260905011607 54 270 5.0 17.0 0.00 0.00 0.30 94 996.0
20260905011102 54 279 7.0 8.0 0.00 0.00 0.30 94 995.8
20260905010557 53 274 8.0 12.0 0.00 0.00 0.30 94 995.8
20260905010051 52 225 4.0 6.0 0.00 0.00 0.29 93 995.8
20260905005547 52 90 1.0 6.0 0.00 0.00 0.29 93 995.7
20260905005041 52 238 3.0 4.0 0.00 0.00 0.29 92 995.7
20260905004536 52 45 0.0 3.0 0.00 0.00 0.29 92 995.8
20260905004031 51 315 0.0 3.0 0.00 0.00 0.29 92 995.9
20260905003525 51 0 0.0 3.0 0.00 0.00 0.29 91 995.9
20260905003021 51 270 0.0 1.0 0.00 0.00 0.28 92 995.8
20260905002515 51 0 0.0 1.0 0.00 0.00 0.28 91 995.9
20260905002010 51 315 0.0 3.0 0.00 0.00 0.28 91 995.9
20260905001505 52 279 3.0 5.0 0.00 0.00 0.28 92 996.0
20260905000959 52 288 0.0 8.0 0.00 0.00 0.28 91 995.8
20260905000455 52 355 6.0 9.0 0.00 0.00 0.28 92 996.0
20260904235949 52 324 6.0 10.0 0.00 0.00 0.27 91 996.0
20260904235444 52 252 4.0 6.0 0.00 0.00 0.27 91 995.9
20260904234939 53 247 5.0 8.0 0.00 0.00 0.27 91 995.8
20260904234433 53 279 7.0 11.0 0.00 0.00 0.26 92 995.6
20260904233929 53 270 1.0 2.0 0.00 0.00 0.26 92 995.7
20260904233423 53 0 0.0 3.0 0.00 0.00 0.26 91 995.5
20260904232918 53 225 1.0 5.0 0.00 0.00 0.26 91 995.5
20260904232413 53 90 0.0 2.0 0.00 0.00 0.26 91 995.4
20260904231907 53 279 0.0 6.0 0.00 0.00 0.26 91 995.5
20260904231403 53 252 1.0 4.0 0.00 0.00 0.26 91 995.4
20260904230857 53 301 3.0 5.0 0.00 0.00 0.25 91 995.5
20260904230352 53 310 5.0 6.0 0.00 0.00 0.25 91 995.3
20260904225847 53 0 3.0 6.0 0.00 0.00 0.25 91 995.3
20260904225341 53 234 0.0 8.0 0.00 0.00 0.25 91 995.5
20260904224837 53 292 4.0 6.0 0.00 0.00 0.25 91 995.5
20260904224331 53 225 0.0 8.0 0.00 0.00 0.25 91 995.4
20260904223826 53 324 2.0 7.0 0.00 0.00 0.25 91 995.4
20260904223321 53 150 0.0 6.0 0.00 0.00 0.25 91 995.5
20260904222815 54 9 2.0 4.0 0.00 0.00 0.25 91 995.4
20260904222311 54 303 4.0 7.0 0.00 0.00 0.25 91 995.3
20260904221805 54 288 7.0 7.0 0.00 0.00 0.25 91 995.3
20260904221300 54 310 6.0 12.0 0.00 0.00 0.24 91 995.3
20260904220249 54 261 3.0 7.0 0.00 0.00 0.23 90 995.2
20260904215745 54 165 1.0 6.0 0.00 0.00 0.22 91 995.1
20260904215239 54 333 5.0 10.0 0.00 0.00 0.22 90 995.2
20260904214734 54 274 1.0 11.0 0.00 0.00 0.22 90 995.0
20260904214229 54 0 0.0 4.0 0.00 0.00 0.20 89 995.0
20260904213724 54 270 4.0 5.0 0.00 0.00 0.20 89 995.0
20260904213219 54 225 0.0 2.0 0.00 0.00 0.20 89 995.1
20260904212713 54 225 1.0 2.0 0.00 0.00 0.19 89 995.0
20260904212208 54 85 0.0 0.0 0.00 0.00 0.19 89 995.0
20260904211703 54 90 0.0 3.0 0.00 0.00 0.19 89 994.9
20260904211158 54 90 0.0 0.0 0.00 0.00 0.18 89 994.9
20260904210653 54 90 0.0 0.0 0.00 0.00 0.18 89 994.8
20260904210147 54 0 0.0 0.0 0.00 0.00 0.18 88 994.8
20260904205642 54 0 0.0 0.0 0.00 0.00 0.18 88 994.8
20260904205137 54 0 0.0 0.0 0.00 0.00 0.18 88 994.8
20260904204632 53 0 0.0 0.0 0.00 0.00 0.18 88 994.8
20260904204127 53 225 0.0 1.0 0.00 0.00 0.18 88 994.9
20260904203621 53 265 0.0 4.0 0.00 0.00 0.18 87 994.9
20260904203116 53 180 1.0 4.0 0.00 0.00 0.18 87 994.9
20260904202611 53 180 3.0 4.0 0.00 0.00 0.18 86 994.9
20260904202106 53 211 3.0 4.0 0.00 0.00 0.18 86 995.0
20260904201601 53 225 3.0 3.0 0.00 0.00 0.18 86 994.9
20260904201055 53 135 2.0 3.0 0.00 0.00 0.18 86 995.1
20260904200550 53 135 1.0 2.0 0.00 0.00 0.18 86 995.1
20260904200045 53 315 0.0 0.0 0.00 0.00 0.18 85 995.1
20260904195540 54 270 0.0 0.0 0.00 0.00 0.18 86 995.3
20260904195035 54 45 0.0 0.0 0.00 0.00 0.18 85 995.2
20260904194529 54 45 0.0 0.0 0.00 0.00 0.18 85 995.1
20260904194024 54 45 0.0 0.0 0.00 0.00 0.18 85 995.1
20260904193519 54 45 0.0 5.0 0.00 0.00 0.18 85 995.2
20260904193014 54 175 4.0 6.0 0.00 0.00 0.18 84 995.3
20260904192509 54 135 1.0 3.0 0.00 0.00 0.18 84 995.2
20260904192004 54 45 0.0 1.0 0.00 0.00 0.18 83 995.3
20260904191458 54 45 0.0 0.0 0.00 0.00 0.18 83 995.2
20260904190953 54 45 0.0 0.0 0.00 0.00 0.18 83 995.3
20260904190448 54 45 0.0 0.0 0.00 0.00 0.18 83 995.3
20260904185943 54 270 0.0 1.0 0.00 0.00 0.18 83 995.4
20260904185437 54 270 0.0 0.0 0.00 0.00 0.18 82 995.4
20260904184932 54 45 0.0 3.0 0.00 0.00 0.17 81 995.4
20260904184427 55 243 3.0 7.0 0.00 0.00 0.17 80 995.6
20260904183922 55 238 6.0 9.0 0.00 0.00 0.14 80 995.7
20260904183417 55 243 7.0 8.0 0.00 0.00 0.13 80 995.6
20260904182911 56 234 7.0 15.0 0.00 0.00 0.12 80 995.6
20260904182406 56 225 9.0 14.0 0.00 0.00 0.11 79 995.6
20260904181901 56 225 8.0 13.0 0.00 0.00 0.09 79 995.6
20260904181356 56 225 7.0 7.0 0.00 0.00 0.09 79 995.4
20260904180851 56 225 8.0 8.0 0.00 0.00 0.09 78 995.5
20260904180345 56 180 4.0 4.0 0.00 0.00 0.09 78 995.5
20260904175840 56 180 3.0 3.0 0.00 0.00 0.09 77 995.5
20260904175335 56 180 3.0 3.0 0.00 0.00 0.09 77 995.5
20260904174830 56 180 2.0 5.0 0.00 0.00 0.09 77 995.5
20260904174325 56 211 4.0 6.0 0.00 0.00 0.09 77 995.5
20260904173819 56 180 3.0 5.0 0.00 0.00 0.09 77 995.6
20260904173314 56 202 3.0 6.0 0.00 0.00 0.09 77 995.5
20260904172809 56 180 2.0 3.0 0.00 0.00 0.09 76 995.6
20260904172305 56 216 3.0 4.0 0.00 0.00 0.09 76 995.5
20260904171759 56 225 4.0 5.0 0.00 0.00 0.09 75 995.5
20260904171253 56 225 3.0 3.0 0.00 0.00 0.09 75 995.5
20260904170748 56 225 3.0 3.0 0.00 0.00 0.09 74 995.5
20260904170243 57 211 3.0 5.0 0.00 0.00 0.09 74 995.5
20260904165738 57 225 4.0 5.0 0.00 0.00 0.09 73 995.5
20260904165233 57 225 4.0 5.0 0.00 0.00 0.09 72 995.5
20260904164727 58 225 4.0 6.0 0.00 0.00 0.09 72 995.5
20260904164222 58 252 8.0 10.0 0.00 0.00 0.09 72 995.3
20260904163717 59 256 7.0 8.0 0.00 0.00 0.09 72 995.4
20260904163212 59 225 4.0 7.0 0.00 0.00 0.08 72 995.5
20260904162707 59 261 3.0 6.0 0.00 0.00 0.08 71 995.4
20260904162201 59 225 8.0 9.0 0.00 0.00 0.08 70 995.5
20260904161656 59 283 7.0 11.0 0.00 0.00 0.08 70 995.5
20260904161151 59 234 5.0 14.0 0.00 0.00 0.06 70 995.6
20260904160646 60 261 8.0 12.0 0.00 0.00 0.06 69 995.7
20260904160141 60 247 7.0 9.0 0.00 0.00 0.06 68 995.7
20260904155635 61 256 4.0 10.0 0.00 0.00 0.06 67 995.6
20260904155130 62 225 10.0 12.0 0.00 0.00 0.06 66 995.6
20260904154625 63 252 7.0 13.0 0.00 0.00 0.06 66 995.7
20260904154120 63 225 9.0 13.0 0.00 0.00 0.06 68 995.6
20260904153615 63 261 5.0 10.0 0.00 0.00 0.06 69 995.6
20260904153109 62 270 6.0 10.0 0.00 0.00 0.06 69 995.5
20260904152604 62 270 7.0 12.0 0.00 0.00 0.06 66 995.6
20260904152059 64 238 6.0 8.0 0.00 0.00 0.06 66 995.6
20260904151554 64 36 1.0 6.0 0.00 0.00 0.06 68 995.7
20260904151049 63 342 4.0 6.0 0.00 0.00 0.06 69 995.7
20260904150543 63 324 5.0 7.0 0.00 0.00 0.06 68 995.7
20260904150038 63 297 5.0 11.0 0.00 0.00 0.06 69 995.7
20260904145533 63 306 6.0 8.0 0.00 0.00 0.06 69 995.8
20260904145028 63 252 7.0 8.0 0.00 0.00 0.06 71 995.6
20260904144523 62 252 5.0 9.0 0.00 0.00 0.06 71 995.6
20260904144017 62 243 8.0 11.0 0.00 0.00 0.06 73 995.7
20260904143512 62 328 2.0 9.0 0.00 0.00 0.06 75 995.9
20260904143007 60 270 8.0 8.0 0.00 0.00 0.06 75 995.9
20260904142502 59 315 6.0 9.0 0.00 0.00 0.06 74 995.9
20260904141957 59 238 3.0 12.0 0.00 0.00 0.06 74 995.9
20260904141451 60 247 10.0 11.0 0.00 0.00 0.06 74 996.0
20260904140946 60 270 7.0 8.0 0.00 0.00 0.05 73 996.0
20260904140441 60 225 5.0 9.0 0.00 0.00 0.05 73 996.1
20260904135936 60 229 5.0 11.0 0.00 0.00 0.05 73 996.2
20260904135431 60 270 2.0 12.0 0.00 0.00 0.05 73 996.2
20260904134925 60 270 7.0 10.0 0.00 0.00 0.05 74 996.1
20260904134420 60 171 3.0 10.0 0.00 0.00 0.05 73 996.3
20260904133915 59 247 5.0 9.0 0.00 0.00 0.05 74 996.3
20260904133410 59 252 6.0 13.0 0.00 0.00 0.05 73 996.2
20260904132905 59 252 11.0 11.0 0.00 0.00 0.00 73 996.3
20260904132359 59 270 6.0 14.0 0.00 0.00 0.00 72 996.3
20260904131854 59 270 12.0 14.0 0.00 0.00 0.00 72 996.4
20260904131349 59 243 12.0 12.0 0.00 0.00 0.00 73 996.5
20260904130844 59 265 14.0 14.0 0.00 0.00 0.00 73 996.4
20260904130339 59 281 7.0 13.0 0.00 0.00 0.00 73 996.5
20260904125833 59 238 9.0 13.0 0.00 0.00 0.00 72 996.6
20260904125328 59 234 8.0 15.0 0.00 0.00 0.00 73 996.6
20260904124823 59 234 9.0 14.0 0.00 0.00 0.00 73 996.5
20260904124318 59 252 10.0 10.0 0.00 0.00 0.00 74 996.5
20260904123813 59 261 7.0 11.0 0.00 0.00 0.00 74 996.5
20260904123307 59 252 7.0 11.0 0.00 0.00 0.00 75 996.5
20260904122802 59 234 6.0 11.0 0.00 0.00 0.00 76 996.6
20260904122257 59 225 6.0 8.0 0.00 0.00 0.00 76 996.9
20260904121752 59 225 6.0 9.0 0.00 0.00 0.00 76 996.9
20260904121247 59 238 10.0 12.0 0.00 0.00 0.00 76 996.9
20260904120742 59 247 5.0 13.0 0.00 0.00 0.00 76 997.0
20260904120236 60 243 13.0 13.0 0.00 0.00 0.00 76 997.0
20260904115731 60 225 7.0 8.0 0.00 0.00 0.00 77 997.0
20260904115226 59 225 13.0 15.0 0.00 0.00 0.00 76 997.0
20260904114721 59 238 11.0 14.0 0.00 0.00 0.00 76 997.1
20260904114216 59 229 5.0 12.0 0.00 0.00 0.00 77 997.2
20260904113711 59 238 6.0 12.0 0.00 0.00 0.00 77 997.2
20260904113205 59 225 9.0 14.0 0.00 0.00 0.00 77 997.3
20260904112700 59 225 13.0 18.0 0.00 0.00 0.00 77 997.3
20260904112155 59 225 10.0 13.0 0.00 0.00 0.00 78 997.2
20260904111650 59 211 9.0 13.0 0.00 0.00 0.00 79 997.3
20260904111144 59 243 8.0 15.0 0.00 0.00 0.00 79 997.4
20260904110639 58 243 19.0 19.0 0.00 0.00 0.00 79 997.4
20260904110134 58 225 17.0 19.0 0.00 0.00 0.00 80 997.4
20260904105629 59 229 12.0 16.0 0.00 0.00 0.00 79 997.5
20260904105124 59 238 9.0 10.0 0.00 0.00 0.00 80 997.4
20260904104618 59 292 2.0 11.0 0.00 0.00 0.00 80 997.4
20260904104113 59 265 4.0 6.0 0.00 0.00 0.00 80 997.5
20260904103608 59 265 7.0 11.0 0.00 0.00 0.00 80 997.6
20260904103103 59 238 6.0 10.0 0.00 0.00 0.00 80 997.7
20260904102558 58 225 10.0 16.0 0.00 0.00 0.00 80 997.9
20260904102052 58 234 8.0 14.0 0.00 0.00 0.00 80 998.0
20260904101547 58 225 6.0 8.0 0.00 0.00 0.00 80 998.0
20260904101042 58 274 6.0 12.0 0.00 0.00 0.00 80 998.1
20260904100537 58 261 6.0 12.0 0.00 0.00 0.00 80 997.9
20260904100032 58 297 3.0 9.0 0.00 0.00 0.00 80 998.0
20260904095526 58 252 6.0 8.0 0.00 0.00 0.00 79 998.1
20260904095021 57 225 4.0 17.0 0.00 0.00 0.00 78 998.0
20260904094516 57 225 12.0 12.0 0.00 0.00 0.00 77 998.2